Regional Weather Roundup
Issued by NWS

Home | Current Version | Previous Version | Text Only | Print | Product List | Glossary On
Versions: 1 2 3 4 5 6 7 8 9 10 11 12 13 14 15 16 17 18 19 20 21 22 23 24 25 26 27 28 29 30 31 32 33 34 35 36 37 38 39 40 41 42 43 44 45 46 47 48 49 50
151
ASUS43 KDTX 270901
RWRMI
MICHIGAN HOURLY REGIONAL WEATHER ROUNDUP
NATIONAL WEATHER SERVICE DETROIT/PONTIAC MI
500 AM EDT SAT MAY 27 2017

NOTE: "FAIR" INDICATES FEW OR NO CLOUDS BELOW 12,000 FEET WITH NO
SIGNIFICANT WEATHER AND/OR OBSTRUCTION TO VISIBILITY.

MIZ047>049-052>055-059>063-066>070-074>076-081>083-271000-
SOUTHEAST LOWER MICHIGAN

CITY           SKY/WX    TMP DP  RH WIND       PRES   REMARKS
ADRIAN         CLOUDY    59  58  96 E3        29.87R FOG
ALMA           FOG       52  52 100 CALM      29.89S VSB 1/2
ANN ARBOR      CLOUDY    55  55 100 N3        29.86S FOG
BAD AXE        PTCLDY    50  50  99 CALM      29.89F FOG
CARO           CLOUDY    52  52 100 CALM      29.88S FOG
DETROIT CITY   MOCLDY    58  55  90 N3        29.88R
DETROIT        MOCLDY    59  56  89 CALM      29.87S
FLINT          PTCLDY    54  52  93 CALM      29.88S
GROSSE ILE     MOCLDY    58  55  91 CALM      29.85S
HILLSDALE      CLOUDY    59  55  88 SE3       29.86R FOG
HOWELL         CLOUDY    56  53  88 CALM      29.87S

CITY           SKY/WX    TMP DP  RH WIND       PRES   REMARKS
JACKSON        CLOUDY    59  57  93 CALM      29.87R
LAMBERTVILLE   CLOUDY    59  58  97 CALM      29.85S FOG
LANSING        PTCLDY    57  53  86 CALM      29.89R
LAPEER         FOG       53  52  97 CALM      29.88F VSB 1
MASON          CLOUDY    58  56  92 CALM      29.88R
MONROE         CLOUDY    59  58  97 CALM      29.85R FOG
MT. CLEMENS    MOCLDY    55  55 100 N5        29.87R
PONTIAC        PTCLDY    55  52  89 CALM      29.87R
PORT HOPE        N/A     50  49  96 SE3       29.88S
PORT HURON     CLOUDY    50  48  93 CALM      29.89S FOG
TRI CITIES     PTCLDY    55  54  96 CALM      29.89S
MIDLAND        MOCLDY    52  51  96 CALM      29.87S FOG
TROY           CLOUDY    58  54  87 CALM      29.90R
SAGINAW HB     MOCLDY    54  50  87 CALM      29.87F
$$
MIZ043>046-050>051-056>058-064>065-071>073-077>080-271000-
SOUTHWEST LOWER MICHIGAN

CITY           SKY/WX    TMP DP  RH WIND       PRES   REMARKS
BATTLE CREEK   CLOUDY    59  58  96 N3        29.88R
BENTON HARBOR  CLEAR     56  54  93 CALM      29.86S
BIG RAPIDS     PTCLDY    50  48  92 CALM      29.89R
COLDWATER      DRIZZLE   59  59 100 CALM      29.86S
FREMONT        FAIR      49  49 100 CALM      29.87S FOG
HOLLAND        CLEAR     53  51  93 CALM      29.87F
GRAND RAPIDS   CLOUDY    59  57  93 CALM      29.87S
IONIA          CLOUDY    59  56  89 CALM      29.87S
KALAMAZOO      CLOUDY    60  56  86 CALM      29.86F
LUDINGTON      CLOUDY    48  48 100 CALM      29.88F
MARSHALL       CLOUDY    59  58  98 CALM      29.87R
MOUNT PLEASANT CLEAR     51  50  97 CALM      29.88S
MUSKEGON       CLEAR     53  51  93 CALM      29.87F
SOUTH HAVEN    FOG       53  53  99 CALM      29.86F VSB 1/4
$$
MIZ016>042-271000-
NORTHERN LOWER MICHIGAN

CITY           SKY/WX    TMP DP  RH WIND       PRES   REMARKS
ALPENA         CLEAR     45  44  97 CALM      29.90R
BEAVER ISLAND  CLOUDY    49  48  98 CALM      29.88F
BELLAIRE       CLOUDY    50  48  94 CALM      29.88F
CADILLAC       MOCLDY    49  48  97 CALM      29.88F
CHARLEVOIX     CLOUDY    52  52 100 CALM      29.91S
FRANKFORT      CLOUDY    49  47  91 CALM      29.88S
GAYLORD        CLOUDY    54  49  83 CALM      29.88F
GRAYLING       CLOUDY    48  46  91 CALM      29.89F
HARBOR SPRINGS CLOUDY    50  50 100 CALM      29.88S
HOUGHTON LAKE  PTCLDY    50  48  93 CALM      29.89S FOG
MANISTEE       CLOUDY    45  44  97 E3        29.88F FOG
OSCODA         CLOUDY    46  44  95 NW5       29.89S FOG
PELLSTON       CLOUDY    51  48  89 CALM      29.88F
ROGERS CITY    CLOUDY    50  49  95 CALM      29.89F
TRAVERSE CITY  CLOUDY    52  50  93 CALM      29.87F
$$
MIZ007>008-015-271000-
EASTERN UPPER MICHIGAN

CITY           SKY/WX    TMP DP  RH WIND       PRES   REMARKS
KINROSS        LGT RAIN  53  50  89 CALM      29.88S
MACKINAC ISLAN CLOUDY    53  53 100 CALM      29.87S
NEWBERRY       CLOUDY    52  51  97 S7        29.87S
S. S. MARIE    CLOUDY    54  51  90 CALM      29.87S
MUNISING         N/A     56  54  93 S6        29.83F
$$
MIZ004>006-011>014-085-271000-
CENTRAL UPPER MICHIGAN

CITY           SKY/WX    TMP DP  RH WIND       PRES   REMARKS
MANISTIQUE     PTCLDY    46  43  87 CALM      29.86S
ESCANABA       CLOUDY    52  50  93 S3        29.86F
MENOMINEE      FOG       51  51 100 CALM      29.87S VSB 1/4
SAWYER-GWINN   CLEAR     54  52  93 S8        29.86R
$$
MIZ001>003-009>011-084-271000-
WESTERN UPPER MICHIGAN

CITY           SKY/WX    TMP DP  RH WIND       PRES   REMARKS
IRON MOUNTAIN  CLOUDY    52  49  89 CALM      29.84S
HOUGHTON       CLEAR     53  49  86 CALM      29.79F
COPPER HARBOR    N/A     56  53  90 SW13G20   29.77F
IRONWOOD       PTCLDY    59  56  89 SW8       29.82R
$$

ABBREVIATIONS USED IN REMARKS
   TC - TEMPERATURE IN CELSIUS
  WCI - WIND CHILL INDEX
   HX - HEAT INDEX
  VSB - VISIBILITY





USA.gov is the U.S. government's official web portal to all federal, state and local government web resources and services.